Time,TemperatureF,DewpointF,PressureIn,WindDirection,WindDirectionDegrees,WindSpeedMPH,WindSpeedGustMPH,Humidity,HourlyPrecipIn,Conditions,Clouds,dailyrainin,SoftwareType,DateUTC
2013-10-24 00:00:00,32.5,22.1,30.13,NE,42,0.0,4.0,65,0.00,,,0.00,VWS V14.01,2013-10-24 05:00:00,
2013-10-24 00:02:00,32.5,22.1,30.13,NE,41,1.0,1.0,65,0.00,,,0.00,VWS V14.01,2013-10-24 05:02:00,
2013-10-24 00:07:00,32.5,22.1,30.13,WNW,289,0.0,2.0,65,0.00,,,0.00,VWS V14.01,2013-10-24 05:07:00,
2013-10-24 00:13:00,32.5,21.7,30.13,NW,325,0.0,3.0,64,0.00,,,0.00,VWS V14.01,2013-10-24 05:13:00,
2013-10-24 00:18:00,32.6,21.8,30.13,NNW,335,0.0,3.0,64,0.00,,,0.00,VWS V14.01,2013-10-24 05:18:00,
2013-10-24 00:23:00,32.6,22.5,30.13,WNW,283,1.0,3.0,66,0.00,,,0.00,VWS V14.01,2013-10-24 05:23:00,
2013-10-24 00:28:00,32.6,22.1,30.14,NW,309,1.0,3.0,65,0.00,,,0.00,VWS V14.01,2013-10-24 05:28:00,
2013-10-24 00:30:00,32.6,22.5,30.14,NW,308,2.0,3.0,66,0.00,,,0.00,VWS V14.01,2013-10-24 05:30:00,
2013-10-24 00:33:00,32.6,22.1,30.14,WSW,241,1.0,3.0,65,0.00,,,0.00,VWS V14.01,2013-10-24 05:33:00,
2013-10-24 00:38:00,32.7,22.6,30.14,NE,46,0.0,3.0,66,0.00,,,0.00,VWS V14.01,2013-10-24 05:38:00,
2013-10-24 00:43:00,32.7,22.6,30.14,North,9,2.0,3.0,66,0.00,,,0.00,VWS V14.01,2013-10-24 05:43:00,
2013-10-24 00:48:00,32.7,22.2,30.14,WSW,253,5.0,5.0,65,0.00,,,0.00,VWS V14.01,2013-10-24 05:48:00,
2013-10-24 00:53:00,32.7,22.2,30.14,West,281,1.0,6.0,65,0.00,,,0.00,VWS V14.01,2013-10-24 05:53:00,
2013-10-24 00:58:00,32.7,22.2,30.14,SSE,168,0.0,7.0,65,0.00,,,0.00,VWS V14.01,2013-10-24 05:58:00,
2013-10-24 01:00:00,32.7,22.2,30.14,NW,325,2.0,7.0,65,0.00,,,0.00,VWS V14.01,2013-10-24 06:00:00,
2013-10-24 01:03:00,32.7,22.2,30.14,East,80,3.0,5.0,65,0.00,,,0.00,VWS V14.01,2013-10-24 06:03:00,
2013-10-24 01:08:00,32.7,22.2,30.14,NNW,340,0.0,5.0,65,0.00,,,0.00,VWS V14.01,2013-10-24 06:08:00,
2013-10-24 01:13:00,32.7,22.2,30.15,NNE,27,2.0,6.0,65,0.00,,,0.00,VWS V14.01,2013-10-24 06:13:00,
2013-10-24 01:18:00,32.7,21.9,30.15,NW,320,1.0,8.0,64,0.00,,,0.00,VWS V14.01,2013-10-24 06:18:00,
2013-10-24 01:23:00,32.6,22.1,30.15,NW,326,1.0,8.0,65,0.00,,,0.00,VWS V14.01,2013-10-24 06:23:00,
2013-10-24 01:28:00,32.6,22.1,30.15,NNW,328,0.0,8.0,65,0.00,,,0.00,VWS V14.01,2013-10-24 06:28:00,
2013-10-24 01:30:00,32.6,22.5,30.15,NNW,328,0.0,8.0,66,0.00,,,0.00,VWS V14.01,2013-10-24 06:30:00,
2013-10-24 01:33:00,32.6,22.1,30.15,NNW,336,0.0,6.0,65,0.00,,,0.00,VWS V14.01,2013-10-24 06:33:00,
2013-10-24 01:39:00,32.6,22.1,30.15,WNW,284,0.0,6.0,65,0.00,,,0.00,VWS V14.01,2013-10-24 06:39:00,
2013-10-24 01:44:00,32.6,22.1,30.15,NE,39,0.0,6.0,65,0.00,,,0.00,VWS V14.01,2013-10-24 06:44:00,
2013-10-24 01:49:00,32.6,21.8,30.15,NE,43,2.0,6.0,64,0.00,,,0.00,VWS V14.01,2013-10-24 06:49:00,
2013-10-24 01:54:00,32.6,22.1,30.15,NE,44,0.0,6.0,65,0.00,,,0.00,VWS V14.01,2013-10-24 06:54:00,
2013-10-24 01:59:00,32.5,21.7,30.15,WNW,292,0.0,6.0,64,0.00,,,0.00,VWS V14.01,2013-10-24 06:59:00,
2013-10-24 02:00:00,32.5,22.1,30.15,WNW,291,0.0,6.0,65,0.00,,,0.00,VWS V14.01,2013-10-24 07:00:00,
2013-10-24 02:04:00,32.5,22.1,30.16,West,271,3.0,4.0,65,0.00,,,0.00,VWS V14.01,2013-10-24 07:04:00,
2013-10-24 02:09:00,32.4,22.0,30.16,WNW,283,1.0,4.0,65,0.00,,,0.00,VWS V14.01,2013-10-24 07:09:00,
2013-10-24 02:14:00,32.3,21.9,30.16,NW,305,1.0,4.0,65,0.00,,,0.00,VWS V14.01,2013-10-24 07:14:00,
2013-10-24 02:19:00,32.2,22.1,30.16,North,8,0.0,4.0,66,0.00,,,0.00,VWS V14.01,2013-10-24 07:19:00,
2013-10-24 02:24:00,32.2,22.1,30.16,NNW,327,0.0,5.0,66,0.00,,,0.00,VWS V14.01,2013-10-24 07:24:00,
2013-10-24 02:29:00,32.2,22.1,30.16,NE,37,1.0,5.0,66,0.00,,,0.00,VWS V14.01,2013-10-24 07:29:00,
2013-10-24 02:30:00,32.2,22.1,30.16,NW,310,1.0,6.0,66,0.00,,,0.00,VWS V14.01,2013-10-24 07:30:00,
2013-10-24 02:34:00,32.2,22.1,30.16,North,354,0.0,4.0,66,0.00,,,0.00,VWS V14.01,2013-10-24 07:34:00,
2013-10-24 02:39:00,32.2,22.1,30.17,East,91,0.0,5.0,66,0.00,,,0.00,VWS V14.01,2013-10-24 07:39:00,
2013-10-24 02:44:00,32.2,22.5,30.17,North,359,0.0,5.0,67,0.00,,,0.00,VWS V14.01,2013-10-24 07:44:00,
2013-10-24 02:49:00,32.2,22.5,30.16,West,262,0.0,5.0,67,0.00,,,0.00,VWS V14.01,2013-10-24 07:49:00,
2013-10-24 02:54:00,32.3,22.6,30.17,WNW,289,0.0,5.0,67,0.00,,,0.00,VWS V14.01,2013-10-24 07:54:00,
2013-10-24 02:59:00,32.3,22.6,30.17,West,276,0.0,5.0,67,0.00,,,0.00,VWS V14.01,2013-10-24 07:59:00,
2013-10-24 03:00:00,32.3,22.6,30.17,WNW,299,3.0,5.0,67,0.00,,,0.00,VWS V14.01,2013-10-24 08:00:00,
2013-10-24 03:04:00,32.3,22.6,30.17,WNW,295,1.0,5.0,67,0.00,,,0.00,VWS V14.01,2013-10-24 08:04:00,
2013-10-24 03:09:00,32.3,22.6,30.17,ENE,68,0.0,5.0,67,0.00,,,0.00,VWS V14.01,2013-10-24 08:09:00,
2013-10-24 03:14:00,32.3,22.9,30.17,WNW,295,0.0,5.0,68,0.00,,,0.00,VWS V14.01,2013-10-24 08:14:00,
2013-10-24 03:19:00,32.3,22.9,30.17,NW,314,3.0,5.0,68,0.00,,,0.00,VWS V14.01,2013-10-24 08:19:00,
2013-10-24 03:24:00,32.3,22.6,30.17,WNW,303,0.0,5.0,67,0.00,,,0.00,VWS V14.01,2013-10-24 08:24:00,
2013-10-24 03:29:00,32.4,23.0,30.17,NNE,26,0.0,5.0,68,0.00,,,0.00,VWS V14.01,2013-10-24 08:29:00,
2013-10-24 03:30:00,32.4,23.0,30.17,NNE,26,1.0,5.0,68,0.00,,,0.00,VWS V14.01,2013-10-24 08:30:00,
2013-10-24 03:34:00,32.4,23.0,30.17,West,279,1.0,3.0,68,0.00,,,0.00,VWS V14.01,2013-10-24 08:34:00,
2013-10-24 03:40:00,32.5,23.1,30.17,WNW,283,3.0,4.0,68,0.00,,,0.00,VWS V14.01,2013-10-24 08:40:00,
2013-10-24 03:45:00,32.5,23.1,30.17,WNW,300,3.0,5.0,68,0.00,,,0.00,VWS V14.01,2013-10-24 08:45:00,
2013-10-24 03:50:00,32.5,23.1,30.17,WNW,297,1.0,5.0,68,0.00,,,0.00,VWS V14.01,2013-10-24 08:50:00,
2013-10-24 03:55:00,32.5,23.1,30.17,WNW,294,2.0,5.0,68,0.00,,,0.00,VWS V14.01,2013-10-24 08:55:00,
2013-10-24 04:00:00,32.5,23.5,30.17,WNW,283,1.0,5.0,69,0.00,,,0.00,VWS V14.01,2013-10-24 09:00:00,
2013-10-24 04:05:00,32.5,23.5,30.17,NW,304,1.0,4.0,69,0.00,,,0.00,VWS V14.01,2013-10-24 09:05:00,
2013-10-24 04:10:00,32.5,23.5,30.17,WNW,293,1.0,4.0,69,0.00,,,0.00,VWS V14.01,2013-10-24 09:10:00,
2013-10-24 04:15:00,32.5,23.5,30.17,NW,309,0.0,4.0,69,0.00,,,0.00,VWS V14.01,2013-10-24 09:15:00,
2013-10-24 04:20:00,32.5,23.5,30.18,West,271,0.0,4.0,69,0.00,,,0.00,VWS V14.01,2013-10-24 09:20:00,
2013-10-24 04:25:00,32.5,23.5,30.18,WNW,295,2.0,5.0,69,0.00,,,0.00,VWS V14.01,2013-10-24 09:25:00,
2013-10-24 04:30:00,32.5,23.5,30.18,WNW,295,1.0,1.0,69,0.00,,,0.00,VWS V14.01,2013-10-24 09:30:00,
2013-10-24 04:35:00,32.5,23.5,30.18,NW,326,1.0,2.0,69,0.00,,,0.00,VWS V14.01,2013-10-24 09:35:00,
2013-10-24 04:40:00,32.5,23.8,30.18,WNW,283,1.0,2.0,70,0.00,,,0.00,VWS V14.01,2013-10-24 09:40:00,
2013-10-24 04:45:00,32.6,23.9,30.19,NE,36,0.0,3.0,70,0.00,,,0.00,VWS V14.01,2013-10-24 09:45:00,
2013-10-24 04:50:00,32.6,24.2,30.18,North,354,1.0,5.0,71,0.00,,,0.00,VWS V14.01,2013-10-24 09:50:00,
2013-10-24 04:55:00,32.6,24.2,30.19,WNW,283,0.0,5.0,71,0.00,,,0.00,VWS V14.01,2013-10-24 09:55:00,
2013-10-24 05:00:00,32.6,24.2,30.19,West,262,0.0,2.0,71,0.00,,,0.00,VWS V14.01,2013-10-24 10:00:00,
2013-10-24 05:05:00,32.6,24.2,30.19,WSW,241,6.0,6.0,71,0.00,,,0.00,VWS V14.01,2013-10-24 10:05:00,
2013-10-24 05:10:00,32.6,24.6,30.19,WNW,283,1.0,6.0,72,0.00,,,0.00,VWS V14.01,2013-10-24 10:10:00,
2013-10-24 05:15:00,32.6,24.6,30.19,WSW,245,2.0,6.0,72,0.00,,,0.00,VWS V14.01,2013-10-24 10:15:00,
2013-10-24 05:20:00,32.6,24.9,30.19,NNW,345,2.0,6.0,73,0.00,,,0.00,VWS V14.01,2013-10-24 10:20:00,
2013-10-24 05:26:00,32.6,24.9,30.19,NW,314,2.0,6.0,73,0.00,,,0.00,VWS V14.01,2013-10-24 10:26:00,
2013-10-24 05:30:00,32.6,24.9,30.19,SW,226,1.0,6.0,73,0.00,,,0.00,VWS V14.01,2013-10-24 10:30:00,
2013-10-24 05:31:00,32.6,25.2,30.19,NW,312,2.0,5.0,74,0.00,,,0.00,VWS V14.01,2013-10-24 10:31:00,
2013-10-24 05:36:00,32.6,25.2,30.19,WNW,295,3.0,5.0,74,0.00,,,0.00,VWS V14.01,2013-10-24 10:36:00,
2013-10-24 05:41:00,32.6,25.6,30.20,West,279,0.0,5.0,75,0.00,,,0.00,VWS V14.01,2013-10-24 10:41:00,
2013-10-24 05:46:00,32.6,25.6,30.20,WNW,297,0.0,5.0,75,0.00,,,0.00,VWS V14.01,2013-10-24 10:46:00,
2013-10-24 05:51:00,32.6,25.6,30.20,West,261,1.0,5.0,75,0.00,,,0.00,VWS V14.01,2013-10-24 10:51:00,
2013-10-24 05:56:00,32.6,25.6,30.20,WNW,301,0.0,5.0,75,0.00,,,0.00,VWS V14.01,2013-10-24 10:56:00,
2013-10-24 06:00:00,32.6,25.9,30.20,North,10,1.0,5.0,76,0.00,,,0.00,VWS V14.01,2013-10-24 11:00:00,
2013-10-24 06:01:00,32.6,25.9,30.20,North,10,0.0,1.0,76,0.00,,,0.00,VWS V14.01,2013-10-24 11:01:00,
2013-10-24 06:06:00,32.6,25.9,30.21,WSW,253,0.0,4.0,76,0.00,,,0.00,VWS V14.01,2013-10-24 11:06:00,
2013-10-24 06:11:00,32.6,26.2,30.21,WSW,251,0.0,4.0,77,0.00,,,0.00,VWS V14.01,2013-10-24 11:11:00,
2013-10-24 06:16:00,32.6,26.2,30.21,WNW,295,0.0,4.0,77,0.00,,,0.00,VWS V14.01,2013-10-24 11:16:00,
2013-10-24 06:21:00,32.6,26.2,30.21,NW,308,2.0,4.0,77,0.00,,,0.00,VWS V14.01,2013-10-24 11:21:00,
2013-10-24 06:26:00,32.6,26.2,30.22,SW,233,1.0,4.0,77,0.00,,,0.00,VWS V14.01,2013-10-24 11:26:00,
2013-10-24 06:30:00,32.6,26.5,30.22,SSW,213,0.0,4.0,78,0.00,,,0.00,VWS V14.01,2013-10-24 11:30:00,
2013-10-24 06:31:00,32.5,26.4,30.22,SSW,213,1.0,2.0,78,0.00,,,0.00,VWS V14.01,2013-10-24 11:31:00,
2013-10-24 06:36:00,32.5,26.4,30.22,WNW,282,2.0,6.0,78,0.00,,,0.00,VWS V14.01,2013-10-24 11:36:00,
2013-10-24 06:41:00,32.5,26.4,30.22,WNW,301,1.0,6.0,78,0.00,,,0.00,VWS V14.01,2013-10-24 11:41:00,
2013-10-24 06:46:00,32.5,26.7,30.22,WNW,301,0.0,6.0,79,0.00,,,0.00,VWS V14.01,2013-10-24 11:46:00,
2013-10-24 06:51:00,32.5,27.0,30.22,WNW,297,1.0,6.0,80,0.00,,,0.00,VWS V14.01,2013-10-24 11:51:00,
2013-10-24 06:56:00,32.5,27.0,30.22,WNW,287,1.0,6.0,80,0.00,,,0.00,VWS V14.01,2013-10-24 11:56:00,
2013-10-24 07:00:00,32.5,27.0,30.22,WNW,292,1.0,6.0,80,0.00,,,0.00,VWS V14.01,2013-10-24 12:00:00,
2013-10-24 07:01:00,32.4,26.9,30.22,WNW,296,1.0,2.0,80,0.00,,,0.00,VWS V14.01,2013-10-24 12:01:00,
2013-10-24 07:06:00,32.5,27.3,30.22,NW,309,1.0,5.0,81,0.00,,,0.00,VWS V14.01,2013-10-24 12:06:00,
2013-10-24 07:11:00,32.5,27.3,30.23,WNW,283,1.0,5.0,81,0.00,,,0.00,VWS V14.01,2013-10-24 12:11:00,
2013-10-24 07:17:00,32.4,27.2,30.23,West,274,0.0,5.0,81,0.00,,,0.00,VWS V14.01,2013-10-24 12:17:00,
2013-10-24 07:22:00,32.5,27.3,30.23,NW,312,1.0,5.0,81,0.00,,,0.00,VWS V14.01,2013-10-24 12:22:00,
2013-10-24 07:27:00,32.4,27.2,30.23,West,277,1.0,5.0,81,0.00,,,0.00,VWS V14.01,2013-10-24 12:27:00,
2013-10-24 07:30:00,32.4,27.2,30.23,West,273,0.0,5.0,81,0.00,,,0.00,VWS V14.01,2013-10-24 12:30:00,
2013-10-24 07:32:00,32.4,27.5,30.23,WSW,258,2.0,2.0,82,0.00,,,0.00,VWS V14.01,2013-10-24 12:32:00,
2013-10-24 07:37:00,32.3,27.4,30.23,NW,314,1.0,4.0,82,0.00,,,0.00,VWS V14.01,2013-10-24 12:37:00,
2013-10-24 07:42:00,32.3,27.4,30.23,NW,318,3.0,4.0,82,0.00,,,0.00,VWS V14.01,2013-10-24 12:42:00,
2013-10-24 07:47:00,32.3,27.4,30.23,NNW,329,0.0,4.0,82,0.00,,,0.00,VWS V14.01,2013-10-24 12:47:00,
2013-10-24 07:52:00,32.3,27.7,30.23,NW,315,0.0,4.0,83,0.00,,,0.00,VWS V14.01,2013-10-24 12:52:00,
2013-10-24 07:57:00,32.3,27.7,30.23,NNE,31,1.0,4.0,83,0.00,,,0.00,VWS V14.01,2013-10-24 12:57:00,
2013-10-24 08:00:00,32.3,27.7,30.23,West,270,0.0,4.0,83,0.00,,,0.00,VWS V14.01,2013-10-24 13:00:00,
2013-10-24 08:02:00,32.3,27.7,30.23,North,359,0.0,2.0,83,0.00,,,0.00,VWS V14.01,2013-10-24 13:02:00,
2013-10-24 08:07:00,32.3,27.7,30.24,West,268,1.0,3.0,83,0.00,,,0.00,VWS V14.01,2013-10-24 13:07:00,
2013-10-24 08:12:00,32.3,28.0,30.24,West,268,1.0,4.0,84,0.00,,,0.00,VWS V14.01,2013-10-24 13:12:00,
2013-10-24 08:17:00,32.4,28.1,30.24,West,278,0.0,4.0,84,0.00,,,0.00,VWS V14.01,2013-10-24 13:17:00,
2013-10-24 08:22:00,32.4,28.1,30.24,West,266,0.0,4.0,84,0.00,,,0.00,VWS V14.01,2013-10-24 13:22:00,
2013-10-24 08:27:00,32.5,28.2,30.24,West,267,0.0,4.0,84,0.00,,,0.00,VWS V14.01,2013-10-24 13:27:00,
2013-10-24 08:30:00,32.6,28.6,30.24,West,263,1.0,4.0,85,0.00,,,0.00,VWS V14.01,2013-10-24 13:30:00,
2013-10-24 08:32:00,32.6,28.6,30.25,West,263,1.0,2.0,85,0.00,,,0.00,VWS V14.01,2013-10-24 13:32:00,
2013-10-24 08:37:00,32.7,28.7,30.25,WSW,245,0.0,5.0,85,0.00,,,0.00,VWS V14.01,2013-10-24 13:37:00,
2013-10-24 08:42:00,32.8,28.8,30.25,NE,41,0.0,5.0,85,0.00,,,0.00,VWS V14.01,2013-10-24 13:42:00,
2013-10-24 08:47:00,32.9,28.9,30.25,North,359,1.0,5.0,85,0.00,,,0.00,VWS V14.01,2013-10-24 13:47:00,
2013-10-24 08:52:00,33.0,28.7,30.25,North,354,1.0,5.0,84,0.00,,,0.00,VWS V14.01,2013-10-24 13:52:00,
2013-10-24 08:57:00,33.2,28.9,30.25,NW,305,1.0,5.0,84,0.00,,,0.00,VWS V14.01,2013-10-24 13:57:00,
2013-10-24 09:00:00,33.2,28.9,30.25,NNE,16,2.0,5.0,84,0.00,,,0.00,VWS V14.01,2013-10-24 14:00:00,
2013-10-24 09:02:00,33.2,28.9,30.25,WNW,293,3.0,5.0,84,0.00,,,0.00,VWS V14.01,2013-10-24 14:02:00,
2013-10-24 09:08:00,33.2,28.9,30.25,WSW,255,2.0,5.0,84,0.00,,,0.00,VWS V14.01,2013-10-24 14:08:00,
2013-10-24 09:13:00,33.3,29.0,30.25,West,265,1.0,5.0,84,0.00,,,0.00,VWS V14.01,2013-10-24 14:13:00,
2013-10-24 09:18:00,33.3,29.0,30.26,WNW,293,1.0,5.0,84,0.00,,,0.00,VWS V14.01,2013-10-24 14:18:00,
2013-10-24 09:23:00,33.4,29.1,30.26,NW,322,1.0,5.0,84,0.00,,,0.00,VWS V14.01,2013-10-24 14:23:00,
2013-10-24 09:28:00,33.6,29.3,30.26,West,267,0.0,7.0,84,0.00,,,0.00,VWS V14.01,2013-10-24 14:28:00,
2013-10-24 09:30:00,33.7,29.4,30.26,WNW,287,2.0,7.0,84,0.00,,,0.00,VWS V14.01,2013-10-24 14:30:00,
2013-10-24 09:33:00,33.8,29.5,30.26,West,274,1.0,5.0,84,0.00,,,0.00,VWS V14.01,2013-10-24 14:33:00,
2013-10-24 09:38:00,34.1,29.5,30.26,West,265,0.0,5.0,83,0.00,,,0.00,VWS V14.01,2013-10-24 14:38:00,
2013-10-24 09:43:00,34.5,29.9,30.26,East,85,2.0,6.0,83,0.00,,,0.00,VWS V14.01,2013-10-24 14:43:00,
2013-10-24 09:48:00,34.9,30.0,30.26,West,268,1.0,6.0,82,0.00,,,0.00,VWS V14.01,2013-10-24 14:48:00,
2013-10-24 09:53:00,35.2,30.0,30.26,WNW,301,2.0,6.0,81,0.00,,,0.00,VWS V14.01,2013-10-24 14:53:00,
2013-10-24 09:58:00,35.6,30.0,30.26,WNW,297,1.0,6.0,80,0.00,,,0.00,VWS V14.01,2013-10-24 14:58:00,
2013-10-24 10:00:00,35.7,30.1,30.26,WNW,298,2.0,6.0,80,0.00,,,0.00,VWS V14.01,2013-10-24 15:00:00,
2013-10-24 10:03:00,35.9,30.0,30.27,WNW,291,4.0,4.0,79,0.00,,,0.00,VWS V14.01,2013-10-24 15:03:00,
2013-10-24 10:08:00,36.2,30.0,30.27,NNE,13,5.0,5.0,78,0.00,,,0.00,VWS V14.01,2013-10-24 15:08:00,
2013-10-24 10:13:00,36.6,30.1,30.27,NW,316,2.0,5.0,77,0.00,,,0.00,VWS V14.01,2013-10-24 15:13:00,
2013-10-24 10:18:00,37.0,30.1,30.27,WNW,303,0.0,5.0,76,0.00,,,0.00,VWS V14.01,2013-10-24 15:18:00,
2013-10-24 10:23:00,37.3,30.1,30.27,West,272,2.0,6.0,75,0.00,,,0.00,VWS V14.01,2013-10-24 15:23:00,
2013-10-24 10:28:00,37.5,30.3,30.27,WSW,255,1.0,6.0,75,0.00,,,0.00,VWS V14.01,2013-10-24 15:28:00,
2013-10-24 10:30:00,37.5,30.3,30.27,NW,311,3.0,6.0,75,0.00,,,0.00,VWS V14.01,2013-10-24 15:30:00,
2013-10-24 10:33:00,37.7,30.5,30.27,WNW,288,3.0,6.0,75,0.00,,,0.00,VWS V14.01,2013-10-24 15:33:00,
2013-10-24 10:38:00,37.9,30.0,30.27,East,89,2.0,6.0,73,0.00,,,0.00,VWS V14.01,2013-10-24 15:38:00,
2013-10-24 10:43:00,38.2,30.3,30.27,NW,326,1.0,6.0,73,0.00,,,0.00,VWS V14.01,2013-10-24 15:43:00,
2013-10-24 10:48:00,38.5,29.6,30.27,NE,50,0.0,6.0,70,0.00,,,0.00,VWS V14.01,2013-10-24 15:48:00,
2013-10-24 10:54:00,38.7,29.8,30.27,WNW,296,0.0,10.0,70,0.00,,,0.00,VWS V14.01,2013-10-24 15:54:00,
2013-10-24 10:59:00,39.0,29.4,30.27,East,100,0.0,10.0,68,0.00,,,0.00,VWS V14.01,2013-10-24 15:59:00,
2013-10-24 11:00:00,39.0,29.4,30.27,NNW,338,1.0,10.0,68,0.00,,,0.00,VWS V14.01,2013-10-24 16:00:00,
2013-10-24 11:04:00,39.2,29.5,30.27,WNW,289,4.0,4.0,68,0.00,,,0.00,VWS V14.01,2013-10-24 16:04:00,
2013-10-24 11:09:00,39.4,28.6,30.27,SW,228,2.0,6.0,65,0.00,,,0.00,VWS V14.01,2013-10-24 16:09:00,
2013-10-24 11:14:00,39.7,28.5,30.27,WNW,302,1.0,6.0,64,0.00,,,0.00,VWS V14.01,2013-10-24 16:14:00,
2013-10-24 11:19:00,39.9,29.1,30.27,NW,326,5.0,8.0,65,0.00,,,0.00,VWS V14.01,2013-10-24 16:19:00,
2013-10-24 11:24:00,40.2,28.6,30.27,North,359,4.0,8.0,63,0.00,,,0.00,VWS V14.01,2013-10-24 16:24:00,
2013-10-24 11:29:00,40.4,28.8,30.27,North,4,2.0,8.0,63,0.00,,,0.00,VWS V14.01,2013-10-24 16:29:00,
2013-10-24 11:30:00,40.5,28.9,30.27,ENE,75,3.0,8.0,63,0.00,,,0.00,VWS V14.01,2013-10-24 16:30:00,
2013-10-24 11:34:00,40.7,29.1,30.27,NW,319,0.0,6.0,63,0.00,,,0.00,VWS V14.01,2013-10-24 16:34:00,
2013-10-24 11:39:00,41.1,29.5,30.27,West,278,3.0,6.0,63,0.00,,,0.00,VWS V14.01,2013-10-24 16:39:00,
2013-10-24 11:44:00,41.4,29.4,30.28,West,279,4.0,6.0,62,0.00,,,0.00,VWS V14.01,2013-10-24 16:44:00,
2013-10-24 11:49:00,41.4,29.4,30.28,NNW,332,1.0,6.0,62,0.00,,,0.00,VWS V14.01,2013-10-24 16:49:00,
2013-10-24 11:54:00,41.6,30.3,30.27,NW,311,4.0,6.0,64,0.00,,,0.00,VWS V14.01,2013-10-24 16:54:00,
2013-10-24 11:59:00,41.7,30.4,30.28,East,82,1.0,6.0,64,0.00,,,0.00,VWS V14.01,2013-10-24 16:59:00,
2013-10-24 12:00:00,41.8,30.1,30.28,North,350,4.0,8.0,63,0.00,,,0.00,VWS V14.01,2013-10-24 17:00:00,
2013-10-24 12:04:00,41.6,30.0,30.28,NW,307,4.0,5.0,63,0.00,,,0.00,VWS V14.01,2013-10-24 17:04:00,
2013-10-24 12:09:00,41.3,30.1,30.28,NE,41,2.0,5.0,64,0.00,,,0.00,VWS V14.01,2013-10-24 17:09:00,
2013-10-24 12:30:00,41.6,29.6,30.28,WNW,292,2.0,6.0,62,0.00,,,0.00,VWS V14.01,2013-10-24 17:30:00,
2013-10-24 13:00:00,41.8,28.5,30.28,WNW,292,2.0,10.0,59,0.00,,,0.00,VWS V14.01,2013-10-24 18:00:00,
2013-10-24 13:30:00,41.8,29.0,30.28,WNW,292,2.0,9.0,60,0.00,,,0.00,VWS V14.01,2013-10-24 18:30:00,
2013-10-24 14:18:00,42.4,27.8,30.28,WNW,302,4.0,4.0,56,0.00,,,0.00,VWS V14.01,2013-10-24 19:18:00,
2013-10-24 14:23:00,42.3,27.7,30.28,WNW,289,0.0,7.0,56,0.00,,,0.00,VWS V14.01,2013-10-24 19:23:00,
2013-10-24 14:28:00,42.3,28.2,30.28,NW,326,3.0,7.0,57,0.00,,,0.00,VWS V14.01,2013-10-24 19:28:00,
2013-10-24 14:33:00,42.2,28.5,30.28,WNW,293,0.0,3.0,58,0.00,,,0.00,VWS V14.01,2013-10-24 19:33:00,
2013-10-24 14:39:00,42.2,28.5,30.28,NE,37,1.0,3.0,58,0.00,,,0.00,VWS V14.01,2013-10-24 19:39:00,
2013-10-24 14:44:00,42.2,28.5,30.28,NNW,343,4.0,7.0,58,0.00,,,0.00,VWS V14.01,2013-10-24 19:44:00,
2013-10-24 14:49:00,42.1,28.8,30.28,WNW,296,3.0,8.0,59,0.00,,,0.00,VWS V14.01,2013-10-24 19:49:00,
2013-10-24 14:54:00,42.1,28.8,30.28,WNW,298,4.0,8.0,59,0.00,,,0.00,VWS V14.01,2013-10-24 19:54:00,
2013-10-24 14:59:00,42.1,29.6,30.27,NNW,327,0.0,8.0,61,0.00,,,0.00,VWS V14.01,2013-10-24 19:59:00,
2013-10-24 15:04:00,42.2,29.7,30.27,NNW,329,3.0,9.0,61,0.00,,,0.00,VWS V14.01,2013-10-24 20:04:00,
2013-10-24 15:09:00,42.4,29.5,30.28,East,95,1.0,9.0,60,0.00,,,0.00,VWS V14.01,2013-10-24 20:09:00,
2013-10-24 15:14:00,42.7,29.4,30.28,North,11,1.0,9.0,59,0.00,,,0.00,VWS V14.01,2013-10-24 20:14:00,
2013-10-24 15:19:00,42.8,29.1,30.28,NNW,339,1.0,9.0,58,0.00,,,0.00,VWS V14.01,2013-10-24 20:19:00,
2013-10-24 15:24:00,43.0,29.2,30.28,WNW,299,4.0,9.0,58,0.00,,,0.00,VWS V14.01,2013-10-24 20:24:00,
2013-10-24 15:29:00,43.1,29.3,30.28,NNW,333,1.0,9.0,58,0.00,,,0.00,VWS V14.01,2013-10-24 20:29:00,
2013-10-24 15:34:00,43.0,29.7,30.28,WNW,282,2.0,5.0,59,0.00,,,0.00,VWS V14.01,2013-10-24 20:34:00,
2013-10-24 15:39:00,42.9,29.2,30.28,WNW,299,2.0,6.0,58,0.00,,,0.00,VWS V14.01,2013-10-24 20:39:00,
2013-10-24 15:44:00,42.8,29.5,30.28,NNW,335,0.0,6.0,59,0.00,,,0.00,VWS V14.01,2013-10-24 20:44:00,
2013-10-24 15:49:00,42.7,29.8,30.28,North,4,2.0,6.0,60,0.00,,,0.00,VWS V14.01,2013-10-24 20:49:00,
2013-10-24 15:55:00,42.6,29.7,30.28,North,4,3.0,6.0,60,0.00,,,0.00,VWS V14.01,2013-10-24 20:55:00,
2013-10-24 16:00:00,42.5,28.8,30.28,WNW,283,5.0,6.0,58,0.00,,,0.00,VWS V14.01,2013-10-24 21:00:00,
2013-10-24 16:05:00,42.4,28.3,30.28,WSW,256,0.0,5.0,57,0.00,,,0.00,VWS V14.01,2013-10-24 21:05:00,
2013-10-24 16:10:00,42.4,28.3,30.28,NW,318,1.0,5.0,57,0.00,,,0.00,VWS V14.01,2013-10-24 21:10:00,
2013-10-24 16:15:00,42.3,28.2,30.28,NW,312,1.0,5.0,57,0.00,,,0.00,VWS V14.01,2013-10-24 21:15:00,
2013-10-24 16:20:00,42.4,28.7,30.28,North,349,1.0,5.0,58,0.00,,,0.00,VWS V14.01,2013-10-24 21:20:00,
2013-10-24 16:25:00,42.4,28.3,30.28,West,280,2.0,5.0,57,0.00,,,0.00,VWS V14.01,2013-10-24 21:25:00,
2013-10-24 16:30:00,42.4,28.3,30.28,NW,304,2.0,2.0,57,0.00,,,0.00,VWS V14.01,2013-10-24 21:30:00,
2013-10-24 16:35:00,42.4,28.7,30.28,North,8,0.0,6.0,58,0.00,,,0.00,VWS V14.01,2013-10-24 21:35:00,
2013-10-24 16:40:00,42.3,28.6,30.28,WNW,293,0.0,6.0,58,0.00,,,0.00,VWS V14.01,2013-10-24 21:40:00,
2013-10-24 16:45:00,42.2,28.9,30.28,ENE,70,2.0,6.0,59,0.00,,,0.00,VWS V14.01,2013-10-24 21:45:00,
2013-10-24 16:50:00,42.1,28.8,30.28,West,281,0.0,6.0,59,0.00,,,0.00,VWS V14.01,2013-10-24 21:50:00,
2013-10-24 16:55:00,42.0,28.7,30.28,NNE,23,1.0,6.0,59,0.00,,,0.00,VWS V14.01,2013-10-24 21:55:00,
2013-10-24 17:00:00,42.0,28.7,30.28,West,276,0.0,2.0,59,0.00,,,0.00,VWS V14.01,2013-10-24 22:00:00,
2013-10-24 17:05:00,41.9,29.0,30.28,WNW,293,1.0,2.0,60,0.00,,,0.00,VWS V14.01,2013-10-24 22:05:00,
2013-10-24 17:11:00,41.9,29.5,30.28,NNW,347,0.0,2.0,61,0.00,,,0.00,VWS V14.01,2013-10-24 22:11:00,
2013-10-24 17:16:00,41.9,29.5,30.28,NE,35,1.0,2.0,61,0.00,,,0.00,VWS V14.01,2013-10-24 22:16:00,
2013-10-24 17:21:00,41.9,29.0,30.28,SSW,195,1.0,2.0,60,0.00,,,0.00,VWS V14.01,2013-10-24 22:21:00,
2013-10-24 17:26:00,41.8,29.0,30.29,NW,310,1.0,5.0,60,0.00,,,0.00,VWS V14.01,2013-10-24 22:26:00,
2013-10-24 17:31:00,41.7,29.3,30.29,NNE,27,0.0,1.0,61,0.00,,,0.00,VWS V14.01,2013-10-24 22:31:00,
2013-10-24 17:36:00,41.6,29.2,30.29,WNW,300,0.0,3.0,61,0.00,,,0.00,VWS V14.01,2013-10-24 22:36:00,
2013-10-24 17:41:00,41.6,29.2,30.29,NNW,333,3.0,3.0,61,0.00,,,0.00,VWS V14.01,2013-10-24 22:41:00,
2013-10-24 17:46:00,41.5,29.9,30.29,NNE,21,0.0,3.0,63,0.00,,,0.00,VWS V14.01,2013-10-24 22:46:00,
2013-10-24 17:51:00,41.4,29.8,30.29,WSW,254,2.0,5.0,63,0.00,,,0.00,VWS V14.01,2013-10-24 22:51:00,
2013-10-24 17:56:00,41.3,30.1,30.29,WSW,238,0.0,5.0,64,0.00,,,0.00,VWS V14.01,2013-10-24 22:56:00,
2013-10-24 18:01:00,41.2,30.0,30.29,WSW,238,0.0,1.0,64,0.00,,,0.00,VWS V14.01,2013-10-24 23:01:00,
2013-10-24 18:06:00,41.1,29.5,30.29,West,265,0.0,3.0,63,0.00,,,0.00,VWS V14.01,2013-10-24 23:06:00,
2013-10-24 18:11:00,41.0,30.1,30.29,West,265,0.0,3.0,65,0.00,,,0.00,VWS V14.01,2013-10-24 23:11:00,
2013-10-24 18:16:00,40.9,29.7,30.29,West,263,0.0,3.0,64,0.00,,,0.00,VWS V14.01,2013-10-24 23:16:00,
2013-10-24 18:21:00,40.8,29.6,30.29,West,264,0.0,3.0,64,0.00,,,0.00,VWS V14.01,2013-10-24 23:21:00,
2013-10-24 18:27:00,40.7,29.5,30.29,NW,309,0.0,3.0,64,0.00,,,0.00,VWS V14.01,2013-10-24 23:27:00,
2013-10-24 18:32:00,40.6,29.8,30.29,NW,309,1.0,1.0,65,0.00,,,0.00,VWS V14.01,2013-10-24 23:32:00,
2013-10-24 18:37:00,40.6,30.5,30.29,NW,309,0.0,1.0,67,0.00,,,0.00,VWS V14.01,2013-10-24 23:37:00,
2013-10-24 18:42:00,40.5,30.0,30.30,NW,309,0.0,1.0,66,0.00,,,0.00,VWS V14.01,2013-10-24 23:42:00,
2013-10-24 18:47:00,40.4,30.3,30.30,NW,309,0.0,1.0,67,0.00,,,0.00,VWS V14.01,2013-10-24 23:47:00,
2013-10-24 18:52:00,40.3,30.6,30.30,NW,309,0.0,1.0,68,0.00,,,0.00,VWS V14.01,2013-10-24 23:52:00,
2013-10-24 18:57:00,40.1,30.8,30.30,NW,309,0.0,1.0,69,0.00,,,0.00,VWS V14.01,2013-10-24 23:57:00,
2013-10-24 19:02:00,40.0,30.3,30.30,NW,309,0.0,0.0,68,0.00,,,0.00,VWS V14.01,2013-10-25 00:02:00,
2013-10-24 19:07:00,40.0,30.3,30.30,West,277,0.0,2.0,68,0.00,,,0.00,VWS V14.01,2013-10-25 00:07:00,
2013-10-24 19:12:00,39.9,30.6,30.30,West,268,0.0,2.0,69,0.00,,,0.00,VWS V14.01,2013-10-25 00:12:00,
2013-10-24 19:17:00,39.9,30.6,30.30,SW,220,2.0,3.0,69,0.00,,,0.00,VWS V14.01,2013-10-25 00:17:00,
2013-10-24 19:22:00,39.8,30.8,30.30,NW,314,0.0,3.0,70,0.00,,,0.00,VWS V14.01,2013-10-25 00:22:00,
2013-10-24 19:27:00,39.7,30.4,30.30,NW,304,0.0,3.0,69,0.00,,,0.00,VWS V14.01,2013-10-25 00:27:00,
2013-10-24 19:32:00,39.7,30.7,30.30,WSW,253,0.0,0.0,70,0.00,,,0.00,VWS V14.01,2013-10-25 00:32:00,
2013-10-24 19:37:00,39.6,30.3,30.31,WSW,253,0.0,1.0,69,0.00,,,0.00,VWS V14.01,2013-10-25 00:37:00,
2013-10-24 19:43:00,39.6,30.6,30.31,WSW,254,0.0,1.0,70,0.00,,,0.00,VWS V14.01,2013-10-25 00:43:00,
2013-10-24 19:48:00,39.6,30.6,30.31,WSW,254,0.0,1.0,70,0.00,,,0.00,VWS V14.01,2013-10-25 00:48:00,
2013-10-24 19:53:00,39.6,30.6,30.31,WSW,253,0.0,1.0,70,0.00,,,0.00,VWS V14.01,2013-10-25 00:53:00,
2013-10-24 19:58:00,39.6,30.6,30.31,WSW,253,1.0,1.0,70,0.00,,,0.00,VWS V14.01,2013-10-25 00:58:00,
2013-10-24 20:03:00,39.6,30.6,30.31,WNW,301,0.0,3.0,70,0.00,,,0.00,VWS V14.01,2013-10-25 01:03:00,
2013-10-24 20:08:00,39.6,30.6,30.31,NNW,328,0.0,3.0,70,0.00,,,0.00,VWS V14.01,2013-10-25 01:08:00,
2013-10-24 20:13:00,39.7,30.7,30.31,WNW,288,1.0,3.0,70,0.00,,,0.00,VWS V14.01,2013-10-25 01:13:00,
2013-10-24 20:18:00,39.7,30.7,30.31,WNW,299,2.0,3.0,70,0.00,,,0.00,VWS V14.01,2013-10-25 01:18:00,
2013-10-24 20:23:00,39.7,30.7,30.31,WSW,237,1.0,5.0,70,0.00,,,0.00,VWS V14.01,2013-10-25 01:23:00,
2013-10-24 20:28:00,39.7,30.7,30.31,West,268,0.0,5.0,70,0.00,,,0.00,VWS V14.01,2013-10-25 01:28:00,
2013-10-24 20:33:00,39.6,31.0,30.31,WNW,291,2.0,3.0,71,0.00,,,0.00,VWS V14.01,2013-10-25 01:33:00,
2013-10-24 20:38:00,39.6,31.0,30.31,NE,34,2.0,7.0,71,0.00,,,0.00,VWS V14.01,2013-10-25 01:38:00,
2013-10-24 20:43:00,39.6,31.0,30.31,NW,308,1.0,7.0,71,0.00,,,0.00,VWS V14.01,2013-10-25 01:43:00,
2013-10-24 20:48:00,39.6,31.0,30.31,WNW,296,0.0,7.0,71,0.00,,,0.00,VWS V14.01,2013-10-25 01:48:00,
2013-10-24 20:54:00,39.6,31.3,30.31,WNW,287,0.0,7.0,72,0.00,,,0.00,VWS V14.01,2013-10-25 01:54:00,
2013-10-24 20:59:00,39.5,31.2,30.31,West,268,0.0,7.0,72,0.00,,,0.00,VWS V14.01,2013-10-25 01:59:00,
2013-10-24 21:04:00,39.5,31.2,30.31,NW,310,1.0,5.0,72,0.00,,,0.00,VWS V14.01,2013-10-25 02:04:00,
2013-10-24 21:09:00,39.4,31.1,30.31,West,266,4.0,5.0,72,0.00,,,0.00,VWS V14.01,2013-10-25 02:09:00,
2013-10-24 21:14:00,39.3,31.4,30.31,West,260,0.0,5.0,73,0.00,,,0.00,VWS V14.01,2013-10-25 02:14:00,
2013-10-24 21:19:00,39.2,31.3,30.31,WNW,291,0.0,5.0,73,0.00,,,0.00,VWS V14.01,2013-10-25 02:19:00,
2013-10-24 21:24:00,39.1,31.2,30.31,West,272,1.0,5.0,73,0.00,,,0.00,VWS V14.01,2013-10-25 02:24:00,
2013-10-24 21:29:00,39.0,31.4,30.31,WNW,293,2.0,5.0,74,0.00,,,0.00,VWS V14.01,2013-10-25 02:29:00,
2013-10-24 21:34:00,38.9,31.3,30.31,West,266,1.0,4.0,74,0.00,,,0.00,VWS V14.01,2013-10-25 02:34:00,
2013-10-24 21:39:00,38.8,31.2,30.31,West,266,0.0,4.0,74,0.00,,,0.00,VWS V14.01,2013-10-25 02:39:00,
2013-10-24 21:44:00,38.7,31.5,30.32,WNW,285,0.0,4.0,75,0.00,,,0.00,VWS V14.01,2013-10-25 02:44:00,
2013-10-24 21:49:00,38.7,31.5,30.32,WNW,302,0.0,4.0,75,0.00,,,0.00,VWS V14.01,2013-10-25 02:49:00,
2013-10-24 21:54:00,38.7,31.5,30.32,NW,311,2.0,4.0,75,0.00,,,0.00,VWS V14.01,2013-10-25 02:54:00,
2013-10-24 21:59:00,38.6,31.4,30.32,West,280,0.0,4.0,75,0.00,,,0.00,VWS V14.01,2013-10-25 02:59:00,
2013-10-24 22:05:00,38.6,31.4,30.32,West,278,0.0,3.0,75,0.00,,,0.00,VWS V14.01,2013-10-25 03:05:00,
2013-10-24 22:10:00,38.5,31.3,30.32,West,268,0.0,5.0,75,0.00,,,0.00,VWS V14.01,2013-10-25 03:10:00,
2013-10-24 22:15:00,38.4,31.5,30.32,West,268,0.0,5.0,76,0.00,,,0.00,VWS V14.01,2013-10-25 03:15:00,
2013-10-24 22:20:00,38.4,31.5,30.32,West,268,0.0,5.0,76,0.00,,,0.00,VWS V14.01,2013-10-25 03:20:00,
2013-10-24 22:25:00,38.3,31.7,30.32,West,268,1.0,5.0,77,0.00,,,0.00,VWS V14.01,2013-10-25 03:25:00,
2013-10-24 22:30:00,38.2,31.6,30.33,West,267,0.0,5.0,77,0.00,,,0.00,VWS V14.01,2013-10-25 03:30:00,
2013-10-24 22:35:00,38.0,31.4,30.33,WNW,301,0.0,2.0,77,0.00,,,0.00,VWS V14.01,2013-10-25 03:35:00,
2013-10-24 22:40:00,37.9,31.7,30.33,WNW,288,1.0,2.0,78,0.00,,,0.00,VWS V14.01,2013-10-25 03:40:00,
2013-10-24 22:45:00,37.8,31.6,30.33,WSW,250,0.0,4.0,78,0.00,,,0.00,VWS V14.01,2013-10-25 03:45:00,
2013-10-24 22:50:00,37.7,31.8,30.33,WNW,285,1.0,4.0,79,0.00,,,0.00,VWS V14.01,2013-10-25 03:50:00,
2013-10-24 22:55:00,37.6,31.7,30.32,West,273,2.0,4.0,79,0.00,,,0.00,VWS V14.01,2013-10-25 03:55:00,
2013-10-24 23:00:00,37.4,31.5,30.33,WSW,252,1.0,1.0,79,0.00,,,0.00,VWS V14.01,2013-10-25 04:00:00,
2013-10-24 23:01:00,37.4,31.5,30.33,WSW,252,0.0,1.0,79,0.00,,,0.00,VWS V14.01,2013-10-25 04:01:00,
2013-10-24 23:02:00,37.3,31.4,30.33,WSW,257,0.0,2.0,79,0.00,,,0.00,VWS V14.01,2013-10-25 04:02:00,
2013-10-24 23:03:00,37.3,31.4,30.33,WSW,258,0.0,2.0,79,0.00,,,0.00,VWS V14.01,2013-10-25 04:03:00,
2013-10-24 23:08:00,37.2,31.6,30.33,WSW,258,0.0,2.0,80,0.00,,,0.00,VWS V14.01,2013-10-25 04:08:00,
2013-10-24 23:13:00,37.0,31.4,30.33,WSW,258,0.0,2.0,80,0.00,,,0.00,VWS V14.01,2013-10-25 04:13:00,
2013-10-24 23:18:00,36.9,31.3,30.33,WSW,258,0.0,2.0,80,0.00,,,0.00,VWS V14.01,2013-10-25 04:18:00,
2013-10-24 23:23:00,36.8,31.5,30.33,WSW,255,0.0,2.0,81,0.00,,,0.00,VWS V14.01,2013-10-25 04:23:00,
2013-10-24 23:29:00,36.6,31.6,30.33,WSW,253,0.0,2.0,82,0.00,,,0.00,VWS V14.01,2013-10-25 04:29:00,
2013-10-24 23:34:00,36.5,31.2,30.33,WSW,252,0.0,1.0,81,0.00,,,0.00,VWS V14.01,2013-10-25 04:34:00,
2013-10-24 23:39:00,36.4,31.1,30.33,WSW,253,0.0,2.0,81,0.00,,,0.00,VWS V14.01,2013-10-25 04:39:00,
2013-10-24 23:44:00,36.4,31.1,30.33,WSW,253,1.0,2.0,81,0.00,,,0.00,VWS V14.01,2013-10-25 04:44:00,
2013-10-24 23:49:00,36.3,31.3,30.33,WSW,253,0.0,2.0,82,0.00,,,0.00,VWS V14.01,2013-10-25 04:49:00,
2013-10-24 23:54:00,36.2,31.2,30.33,WNW,283,0.0,4.0,82,0.00,,,0.00,VWS V14.01,2013-10-25 04:54:00,
2013-10-24 23:59:00,36.1,31.1,30.34,WSW,252,1.0,4.0,82,0.00,,,0.00,VWS V14.01,2013-10-25 04:59:00,